When you browse on this site, cookies collect data to enhance your experience and personalize the content and advertising you see.
Visit our Privacy Policy to learn more. By continuing to use the site, you agree to this use of cookies and data.

Stündliche Wetter Bad Tatzmanndorf

Heute, 20 September, Sonntag

Zeit Temperatur Niederschläge Wind Luftdruck Luftfeuchtigkeit
00:00 +12°C° 0 mm 1 m/S 730 mmHg 57%
01:00 +12°C° 0 mm 1 m/S 730 mmHg 57%
02:00 +11°C° 0 mm 1 m/S 730 mmHg 57%
03:00 +11°C° 0 mm 1 m/S 730 mmHg 58%
04:00 +11°C° 0 mm 1 m/S 729 mmHg 58%
05:00 +11°C° 0 mm 1 m/S 729 mmHg 58%
06:00 +12°C° 0 mm 1 m/S 730 mmHg 57%
07:00 +13°C° 0 mm 1 m/S 730 mmHg 54%
08:00 +15°C° 0 mm 1 m/S 730 mmHg 48%
09:00 +17°C° 0 mm 2 m/S 730 mmHg 43%
10:00 +19°C° 0 mm 2 m/S 730 mmHg 37%
11:00 +20°C° 0 mm 2 m/S 729 mmHg 37%
12:00 +21°C° 0 mm 2 m/S 729 mmHg 36%
13:00 +23°C° 0 mm 2 m/S 729 mmHg 36%
14:00 +23°C° 0 mm 2 m/S 729 mmHg 38%
15:00 +23°C° 0 mm 2 m/S 728 mmHg 39%
16:00 +23°C° 0 mm 2 m/S 728 mmHg 41%
17:00 +20°C° 0 mm 2 m/S 728 mmHg 47%
18:00 +18°C° 0 mm 2 m/S 728 mmHg 52%
19:00 +15°C° 0 mm 1 m/S 728 mmHg 58%
20:00 +15°C° 0 mm 1 m/S 728 mmHg 57%
21:00 +15°C° 0 mm 1 m/S 728 mmHg 57%
22:00 +15°C° 0 mm 1 m/S 728 mmHg 57%
23:00 +14°C° 0 mm 1 m/S 728 mmHg 58%

Morgen, 21 September, Montag

Zeit Temperatur Niederschläge Wind Luftdruck Luftfeuchtigkeit
00:00 +14°C° 0 mm 1 m/S 728 mmHg 60%
01:00 +13°C° 0 mm 0 m/S 728 mmHg 62%
02:00 +13°C° 0 mm 0 m/S 728 mmHg 63%
03:00 +12°C° 0 mm 0 m/S 728 mmHg 65%
04:00 +12°C° 0 mm 0 m/S 728 mmHg 66%
05:00 +14°C° 0 mm 1 m/S 728 mmHg 66%
06:00 +14°C° 0 mm 1 m/S 728 mmHg 65%
07:00 +15°C° 0 mm 1 m/S 729 mmHg 65%
08:00 +18°C° 0 mm 1 m/S 729 mmHg 58%
09:00 +20°C° 0 mm 1 m/S 729 mmHg 52%
10:00 +23°C° 0 mm 2 m/S 729 mmHg 45%
11:00 +23°C° 0 mm 2 m/S 729 mmHg 43%
12:00 +24°C° 0 mm 2 m/S 729 mmHg 41%
13:00 +25°C° 0 mm 3 m/S 729 mmHg 39%
14:00 +25°C° 0 mm 2 m/S 729 mmHg 40%
15:00 +25°C° 0 mm 2 m/S 728 mmHg 41%
16:00 +25°C° 0 mm 2 m/S 728 mmHg 42%
17:00 +23°C° 0 mm 2 m/S 728 mmHg 47%
18:00 +21°C° 0 mm 1 m/S 728 mmHg 52%
19:00 +19°C° 0 mm 1 m/S 727 mmHg 57%
20:00 +18°C° 0 mm 1 m/S 728 mmHg 58%
21:00 +18°C° 0 mm 1 m/S 728 mmHg 58%
22:00 +16°C° 0 mm 1 m/S 728 mmHg 59%
23:00 +16°C° 0 mm 1 m/S 728 mmHg 61%

übermorgen, 22 September, Dienstag

Zeit Temperatur Niederschläge Wind Luftdruck Luftfeuchtigkeit
00:00 +16°C° 0 mm 1 m/S 728 mmHg 62%
01:00 +16°C° 0 mm 1 m/S 727 mmHg 64%
02:00 +15°C° 0 mm 1 m/S 727 mmHg 66%
03:00 +15°C° 0 mm 1 m/S 727 mmHg 68%
04:00 +15°C° 0 mm 1 m/S 727 mmHg 70%
05:00 +15°C° 0 mm 1 m/S 727 mmHg 70%
06:00 +16°C° 0 mm 1 m/S 727 mmHg 70%
07:00 +16°C° 0 mm 1 m/S 727 mmHg 70%
08:00 +19°C° 0 mm 1 m/S 727 mmHg 64%
09:00 +20°C° 0 mm 2 m/S 727 mmHg 58%
10:00 +23°C° 0 mm 2 m/S 727 mmHg 51%
11:00 +24°C° 0 mm 2 m/S 727 mmHg 49%
12:00 +25°C° 0 mm 2 m/S 727 mmHg 47%
13:00 +26°C° 0 mm 3 m/S 726 mmHg 45%
14:00 +26°C° 0 mm 3 m/S 726 mmHg 46%
15:00 +26°C° 0 mm 3 m/S 725 mmHg 48%
16:00 +26°C° 0 mm 3 m/S 725 mmHg 50%
17:00 +24°C° 0 mm 2 m/S 724 mmHg 59%
18:00 +21°C° 0 mm 2 m/S 724 mmHg 67%
19:00 +20°C° 0 mm 1 m/S 724 mmHg 76%
20:00 +19°C° 0 mm 1 m/S 724 mmHg 79%
21:00 +19°C° 0 mm 1 m/S 724 mmHg 82%
22:00 +19°C° 0 mm 1 m/S 724 mmHg 84%
23:00 +18°C° 0 mm 1 m/S 723 mmHg 86%

23 September, Mittwoch

Zeit Temperatur Niederschläge Wind Luftdruck Luftfeuchtigkeit
00:00 +18°C° 0 mm 1 m/S 723 mmHg 87%
01:00 +16°C° 0 mm 1 m/S 723 mmHg 88%
02:00 +16°C° 0 mm 1 m/S 723 mmHg 90%
03:00 +16°C° 0 mm 1 m/S 723 mmHg 91%
04:00 +15°C° 0 mm 1 m/S 723 mmHg 93%
05:00 +16°C° 0 mm 1 m/S 723 mmHg 91%
06:00 +16°C° 0 mm 1 m/S 723 mmHg 89%
07:00 +16°C° 0 mm 1 m/S 723 mmHg 87%
08:00 +19°C° 0 mm 1 m/S 723 mmHg 79%
09:00 +21°C° 0 mm 1 m/S 723 mmHg 72%
10:00 +23°C° 0 mm 1 m/S 724 mmHg 65%
11:00 +23°C° 0.3 mm 1 m/S 723 mmHg 65%
12:00 +23°C° 0.3 mm 1 m/S 723 mmHg 64%
13:00 +23°C° 0.3 mm 2 m/S 723 mmHg 64%
14:00 +23°C° 0.7 mm 2 m/S 723 mmHg 66%
15:00 +23°C° 0.7 mm 1 m/S 723 mmHg 68%
16:00 +23°C° 0.7 mm 1 m/S 722 mmHg 70%
17:00 +21°C° 0.5 mm 1 m/S 722 mmHg 76%
18:00 +20°C° 0.5 mm 1 m/S 722 mmHg 82%
19:00 +18°C° 0.5 mm 1 m/S 723 mmHg 88%
20:00 +16°C° 0 mm 1 m/S 723 mmHg 89%
21:00 +16°C° 0 mm 1 m/S 723 mmHg 89%
22:00 +15°C° 0 mm 1 m/S 723 mmHg 90%
23:00 +15°C° 0 mm 1 m/S 723 mmHg 91%

24 September, Donnerstag

Zeit Temperatur Niederschläge Wind Luftdruck Luftfeuchtigkeit
00:00 +15°C° 0 mm 1 m/S 723 mmHg 92%
01:00 +14°C° 0 mm 1 m/S 723 mmHg 92%
02:00 +14°C° 0 mm 1 m/S 723 mmHg 92%
03:00 +14°C° 0 mm 1 m/S 723 mmHg 92%
04:00 +14°C° 0 mm 1 m/S 724 mmHg 92%
05:00 +15°C° 0 mm 1 m/S 724 mmHg 90%
06:00 +15°C° 0 mm 1 m/S 724 mmHg 88%
07:00 +16°C° 0 mm 1 m/S 725 mmHg 85%
08:00 +19°C° 0 mm 1 m/S 725 mmHg 77%
09:00 +21°C° 0 mm 1 m/S 725 mmHg 69%
10:00 +23°C° 0 mm 1 m/S 726 mmHg 61%
11:00 +24°C° 0 mm 1 m/S 726 mmHg 57%
12:00 +25°C° 0 mm 1 m/S 726 mmHg 52%
13:00 +26°C° 0 mm 2 m/S 726 mmHg 48%
14:00 +26°C° 0 mm 2 m/S 725 mmHg 50%
15:00 +25°C° 0 mm 2 m/S 725 mmHg 52%
16:00 +25°C° 0 mm 2 m/S 724 mmHg 54%
17:00 +23°C° 0 mm 2 m/S 724 mmHg 62%
18:00 +20°C° 0 mm 2 m/S 724 mmHg 70%
19:00 +18°C° 0 mm 2 m/S 724 mmHg 78%
20:00 +18°C° 0 mm 2 m/S 723 mmHg 80%
21:00 +17°C° 0 mm 2 m/S 723 mmHg 82%
22:00 +17°C° 0 mm 3 m/S 723 mmHg 84%
23:00 +17°C° 0 mm 3 m/S 722 mmHg 84%

25 September, Freitag

Zeit Temperatur Niederschläge Wind Luftdruck Luftfeuchtigkeit
00:00 +17°C° 0 mm 3 m/S 722 mmHg 83%
01:00 +17°C° 0 mm 4 m/S 721 mmHg 83%
02:00 +17°C° 0 mm 4 m/S 721 mmHg 83%
03:00 +17°C° 0 mm 4 m/S 720 mmHg 83%
04:00 +17°C° 0 mm 4 m/S 720 mmHg 83%
05:00 +17°C° 0 mm 4 m/S 720 mmHg 81%
06:00 +17°C° 0 mm 4 m/S 719 mmHg 80%
07:00 +18°C° 0 mm 4 m/S 719 mmHg 79%
08:00 +19°C° 0 mm 4 m/S 719 mmHg 74%
09:00 +20°C° 0 mm 5 m/S 719 mmHg 69%
10:00 +22°C° 0 mm 5 m/S 719 mmHg 64%
11:00 +21°C° 0.7 mm 5 m/S 718 mmHg 71%
12:00 +20°C° 0.7 mm 5 m/S 717 mmHg 78%
13:00 +18°C° 0.7 mm 4 m/S 717 mmHg 86%
14:00 +17°C° 2.4 mm 4 m/S 717 mmHg 86%
15:00 +15°C° 2.4 mm 4 m/S 717 mmHg 86%
16:00 +14°C° 2.4 mm 4 m/S 717 mmHg 86%
17:00 +13°C° 0.4 mm 4 m/S 717 mmHg 86%
18:00 +12°C° 0.4 mm 3 m/S 717 mmHg 85%
19:00 +11°C° 0.4 mm 3 m/S 718 mmHg 85%
20:00 +10°C° 0.5 mm 3 m/S 718 mmHg 86%
21:00 +10°C° 0.5 mm 3 m/S 718 mmHg 87%
22:00 +9°C° 0.5 mm 3 m/S 718 mmHg 88%
23:00 +9°C° 0.8 mm 3 m/S 718 mmHg 88%
Mehr zeigen